sat.trackr.live / text

‹ back to catalog

STARLINK-35708

NORAD 66277 · 2025-247N

PAYLOAD ACTIVE UNKNOWN

§ Identity

Operator
Country
US
Launch date
2025-10-31
Launch site
AFWTR
Launch vehicle
Mass (kg)
RCS (m²)

Purposes: comms

External: N2YO · Heavens-Above · Gunter

§ Orbital elements

Epoch: 2026-05-25T03:32:44.024928Z

Period
93.85 min
Inclination
53.1587°
Eccentricity
0.0000981
Mean motion
15.34405533 rev/d
Perigee alt
462.0 km
Apogee alt
463.4 km
Semi-major
6,840.8 km
B*
7.1828e-4
RAAN
195.3177°
Arg perigee
78.1471°
Mean anomaly
281.9641°
Rev number
3,280

§ Raw data

STARLINK-357081 66277U 25247N   26145.14773177  .00023974  00000+0  71828-3 0  99962 66277  53.1587 195.3177 0000981  78.1471 281.9641 15.34405533 32805

JSON: /api/v1/satellites/66277 · /tle

For live sub-satellite position, see the globe view (requires WebGL).

§ Visibility from observer

Set your observer location to see the next 7 days of passes ≥ 10°. The values pass through the URL so the page stays shareable.

No JS? Fill the form by hand. The geolocation button needs JavaScript.